Wind_Speed
3 8 10 15 14 10 5 6 7 2 3 4 12 18 19 17 16 18 19 19 19 20 19 22 23 25 25 26 28 30 29 27 26 25 23 22 23 22 23 27 26 24 24 29
5 12 13 3 2 7 9 12 13 8 1 3 13 22 18 20 21 19 21 20 20 19 18 17 20 22 27 30 31 29 30 29 30 25 23 19 20 21 22 25 28 29 28 31
14 2 5 6 7 10 12 13 11 8 4 12 11 18 15 12 13 15 20 21 21 19 18 16 17 22 23 28 31 34 34 32 30 28 23 21 14 16 20 25 34 37 33 33
11 7 6 8 13 12 14 8 12 6 5 6 1 9 18 17 17 13 17 16 18 16 14 14 14 18 24 27 28 28 28 30 30 30 26 28 26 21 23 25 33 36 34 33
5 9 10 11 8 11 2 3 4 3 5 9 13 7 9 11 10 15 16 14 12 11 9 9 10 14 17 20 21 23 24 26 27 29 30 28 26 21 16 19 26 34 33 34
3 1 5 5 4 6 12 7 3 1 3 8 12 12 12 14 10 6 6 3 3 3 1 3 5 6 11 14 18 20 23 26 27 28 29 28 25 23 20 19 22 35 34 37
10 9 4 4 6 4 10 7 4 5 5 9 5 6 14 13 12 10 10 14 6 2 5 5 6 8 9 13 15 18 20 23 23 25 26 27 25 23 24 21 23 27 34 38
14 10 14 13 12 8 15 13 7 6 7 10 3 9 6 7 10 11 12 12 11 7 7 8 8 7 8 10 12 14 17 19 21 23 25 27 27 27 27 25 24 29 32 39
11 11 4 2 8 12 7 10 10 9 3 4 9 19 19 11 11 14 16 13 13 10 7 7 6 5 4 7 9 12 13 16 19 22 24 26 26 27 26 24 26 25 27 27
7 14 1 3 3 7 7 3 7 6 6 9 14 18 13 6 9 6 7 6 6 4 4 3 4 2 2 3 5 9 12 14 15 18 21 24 26 27 27 24 26 26 25 26
13 7 3 4 11 15 7 7 6 4 7 7 11 11 9 5 2 1 1 1 3 6 5 3 2 2 4 4 5 8 10 12 14 17 19 22 25 27 27 28 27 28 28 32
12 4 12 11 3 4 14 18 19 7 6 6 6 16 6 1 1 2 2 3 4 2 2 0 2 5 6 7 9 12 13 14 17 17 19 21 23 25 28 29 28 26 29 33
2 3 3 4 5 2 6 14 9 18 2 11 9 11 3 4 3 5 6 5 4 3 4 5 4 7 10 10 10 12 14 17 19 18 19 21 24 25 28 28 27 26 28 33
8 6 6 10 2 4 6 13 16 16 12 20 18 25 25 17 11 8 6 4 8 8 7 11 7 9 14 12 13 15 16 18 20 20 21 23 24 25 26 25 25 27 30 34
9 6 12 20 23 23 20 19 16 19 23 22 25 24 31 23 18 15 15 14 15 15 16 18 16 10 15 17 15 19 19 18 20 21 22 25 23 23 23 25 26 27 31 34
4 4 9 16 21 20 22 20 18 21 24 24 30 28 28 24 21 18 18 18 19 15 17 20 20 18 12 19 20 20 20 21 23 23 26 22 20 22 25 25 26 28 30 31
6 3 3 10 11 10 10 20 25 24 23 22 21 27 22 26 23 21 21 17 18 18 20 20 20 17 20 20 17 15 16 18 23 26 26 24 22 23 25 26 27 28 28 29
12 8 3 8 3 13 8 8 18 25 26 25 25 28 29 26 24 27 21 17 22 20 22 20 16 23 20 12 9 10 13 13 16 19 20 20 20 23 22 23 25 24 23 25
17 13 8 10 18 20 23 16 9 10 21 18 19 22 26 25 20 28 21 18 21 19 19 17 9 11 12 10 9 8 7 6 9 11 13 15 17 18 19 20 20 19 19 20
19 21 16 16 18 21 21 18 12 17 18 15 7 12 16 17 14 17 13 10 6 4 5 6 8 9 7 6 7 5 3 4 5 5 6 8 11 14 15 16 16 17 16 16
5 9 17 18 17 14 11 22 9 12 9 3 0 9 11 8 11 15 14 11 6 6 5 5 5 4 4 5 1 2 3 4 2 4 5 6 6 9 10 11 13 14 14 13
9 6 10 12 14 20 7 4 11 4 1 6 8 7 10 11 13 10 13 9 8 10 11 6 5 3 2 0 4 8 8 6 7 8 9 9 8 8 9 11 12 13 13 14
17 15 11 6 3 3 3 5 5 3 6 14 12 12 10 12 12 12 12 8 5 5 10 8 4 1 3 3 6 11 8 9 11 13 14 13 11 11 11 11 12 11 11 13
14 6 11 15 17 11 5 9 9 13 13 16 12 14 11 14 16 15 11 12 7 2 4 5 4 4 6 8 10 13 12 15 18 19 16 14 14 14 11 11 11 11 10 10
8 5 8 12 17 11 15 12 10 10 10 16 14 12 14 13 17 12 13 7 5 6 5 8 8 3 6 9 12 12 13 15 20 21 19 16 16 14 14 13 9 7 5 5
15 17 11 13 12 10 20 20 14 7 7 10 14 20 20 5 13 11 11 6 9 10 11 9 8 12 10 10 13 11 11 13 18 17 14 13 16 16 16 16 15 11 7 5
Wind_Direction
159 212 207 221 224 276 302 269 257 155 94 282 257 266 270 273 267 260 256 255 254 249 239 231 227 215 212 212 210 209 207 207 203 202 202 208 214 214 219 217 220 217 210 215
177 223 232 91 115 230 247 259 263 268 319 261 285 281 276 270 262 257 259 256 253 254 246 228 219 213 206 210 209 208 208 205 204 203 205 208 217 222 222 219 213 211 216 216
225 181 161 177 194 217 235 247 258 266 315 244 288 276 264 244 252 262 259 259 260 257 254 242 215 209 212 214 209 207 207 204 204 204 202 205 215 215 213 219 220 221 217 219
240 159 157 199 225 215 245 218 254 270 280 270 337 288 290 284 272 245 261 252 254 252 246 248 252 211 211 220 218 213 208 206 206 203 203 201 204 206 218 220 219 221 219 220
180 192 199 214 213 199 237 89 195 230 262 297 246 258 264 263 256 264 260 263 266 259 251 245 237 238 222 221 217 214 213 212 210 208 208 209 213 222 224 213 217 221 219 219
283 3 206 231 74 219 133 119 131 220 280 259 245 224 263 253 267 260 269 259 304 6 40 236 237 227 220 216 208 206 208 210 211 211 214 216 217 219 215 207 211 217 216 219
204 218 161 169 129 145 200 181 229 236 205 259 101 228 250 292 284 261 283 292 290 217 285 268 237 203 201 200 202 203 208 214 211 215 219 223 227 226 225 217 213 208 216 217
215 217 189 194 219 179 197 204 210 231 236 270 117 240 261 227 282 275 265 272 296 291 267 253 250 220 195 197 203 202 205 212 212 215 219 222 225 226 226 219 214 215 214 219
215 234 165 179 218 209 173 215 250 275 71 286 251 263 266 205 226 262 271 285 282 283 298 259 253 226 203 197 206 209 210 212 210 214 219 222 224 224 226 222 221 217 211 209
252 259 174 135 194 242 241 227 193 218 217 236 255 261 259 267 273 232 270 290 322 341 344 293 202 181 192 213 209 216 212 217 220 218 219 222 223 223 224 222 218 216 210 206
226 227 121 164 211 197 184 214 226 239 243 244 259 261 278 260 341 239 173 350 8 351 5 52 80 128 165 188 208 226 225 223 224 222 223 224 222 222 222 221 219 215 213 216
227 274 240 218 112 290 242 228 211 214 200 241 283 268 132 3 346 47 305 313 319 310 19 138 178 199 198 204 215 224 226 224 224 222 225 227 227 222 221 221 219 217 217 221
121 282 243 238 217 207 237 225 249 236 259 218 217 253 144 338 242 287 297 338 203 240 272 305 276 256 232 220 216 224 233 230 226 222 223 226 224 223 223 221 218 216 215 225
97 187 229 231 216 86 218 234 234 234 233 245 239 253 268 259 265 265 254 264 275 254 255 292 288 273 270 255 246 243 232 229 229 221 223 227 225 223 223 220 216 213 218 224
170 224 221 246 262 277 274 270 245 223 235 239 258 251 266 274 276 287 297 293 291 294 299 295 288 255 252 264 246 244 243 236 231 223 225 230 227 225 223 221 217 214 222 226
167 252 254 264 260 257 254 250 241 229 232 239 246 258 261 281 282 279 278 274 277 281 277 277 281 283 282 283 281 245 235 236 228 221 228 229 226 227 224 222 217 218 224 224
184 182 169 262 270 275 261 239 239 245 244 243 248 260 274 274 279 282 280 286 288 281 277 278 281 283 283 285 266 259 251 243 229 232 234 234 228 226 224 221 220 224 226 225
256 251 226 281 262 236 238 260 244 244 252 254 255 256 265 270 279 280 278 289 282 280 275 276 280 288 294 306 279 275 262 251 236 239 241 241 235 227 225 222 224 224 226 228
228 247 258 249 257 282 282 258 247 242 257 254 251 256 264 270 272 273 279 268 270 275 277 292 320 318 305 302 300 278 257 232 230 238 242 241 231 224 219 217 217 214 216 221
223 222 226 239 246 260 267 275 267 258 260 272 339 299 288 280 267 274 324 324 344 333 342 335 334 314 302 310 301 264 207 186 201 214 220 222 220 220 216 219 212 209 214 216
202 224 234 238 247 253 255 275 280 255 264 194 57 313 311 307 298 322 330 311 304 300 285 297 300 292 309 316 318 97 103 92 127 148 152 163 184 196 201 198 198 193 186 189
240 228 222 230 239 251 11 327 237 345 311 315 305 279 275 280 289 306 310 308 309 308 307 298 272 252 309 292 146 123 103 107 121 125 121 123 131 145 159 168 165 172 172 169
244 241 256 246 252 213 224 239 248 138 303 305 296 293 274 277 278 289 294 291 270 297 310 314 286 141 32 71 145 122 111 117 115 111 106 109 115 123 137 145 149 140 155 152
253 244 252 271 266 277 259 271 275 287 274 267 271 287 289 269 274 280 284 277 257 225 270 256 228 148 104 95 102 102 113 120 116 107 100 99 94 100 107 113 124 135 137 139
271 301 268 285 270 291 276 275 275 293 282 268 282 292 288 283 276 279 276 247 222 201 182 211 163 171 107 111 105 106 117 125 117 115 113 111 105 102 101 97 95 103 128 153
245 253 258 259 267 268 274 278 293 299 265 272 291 294 291 220 277 280 259 215 196 176 172 169 170 156 139 124 115 115 126 133 122 111 111 115 120 117 116 108 97 84 95 102
Height
799 804 806 797 795 793 799 798 799 791 803 810 799 792 783 775 773 773 770 770 768 765 767 772 776 781 786 790 793 796 801 804 809 811 814 817 819 822 825 827 831 833 835 836
805 805 790 797 797 807 805 806 801 791 804 814 798 788 781 774 767 765 762 760 758 757 758 762 768 773 777 781 784 789 793 797 801 804 808 813 815 818 819 820 823 826 828 830
797 794 794 801 808 811 805 806 800 804 809 802 806 787 769 754 758 759 754 752 750 749 752 753 758 765 771 774 776 779 783 788 792 797 802 806 811 812 813 812 814 816 819 823
798 794 802 805 802 803 805 795 802 811 815 810 804 798 768 757 751 750 747 747 743 745 748 751 752 755 762 766 771 775 779 783 786 791 794 796 798 800 801 804 807 809 814 817
795 802 806 805 799 799 801 805 808 812 814 813 805 816 770 751 760 750 741 738 737 738 741 745 750 753 756 762 767 771 776 780 783 786 788 791 793 796 798 800 801 804 808 812
794 803 798 797 807 801 807 810 812 814 815 816 794 800 767 752 742 741 739 736 736 740 744 747 750 752 754 758 762 765 769 771 777 781 785 786 788 791 793 794 796 798 801 805
795 799 800 801 808 811 806 807 815 819 826 804 800 800 762 749 742 742 743 737 735 742 745 744 746 750 752 754 757 760 763 767 771 776 780 783 785 787 788 789 791 793 795 798
791 798 795 796 788 797 806 797 803 815 807 791 815 792 753 738 737 738 739 739 737 739 741 744 743 745 748 752 755 757 759 762 766 769 772 776 779 780 782 783 784 786 788 791
782 788 784 790 787 784 802 807 787 802 831 817 779 750 735 744 747 741 738 739 738 736 736 738 740 744 748 750 753 755 757 759 759 763 767 769 772 775 777 778 781 782 784 786
773 785 795 796 796 792 791 782 806 803 818 811 770 761 748 741 737 737 740 736 735 738 739 738 738 743 747 749 751 754 754 755 758 759 760 762 764 767 770 772 773 777 780 781
774 783 800 801 793 784 797 797 796 789 790 790 786 756 723 729 732 734 739 741 739 739 740 741 742 744 745 746 749 752 752 753 754 755 757 758 758 761 763 765 767 770 773 774
777 778 782 785 782 787 776 775 782 789 794 789 786 757 732 729 733 739 738 739 739 741 741 741 741 742 742 742 743 746 748 748 749 750 752 753 755 756 757 759 761 765 767 769
785 800 799 790 788 791 788 775 780 774 785 786 790 760 724 726 735 735 738 737 737 740 740 739 739 740 739 738 739 740 743 743 743 746 746 746 747 749 751 753 756 758 760 762
796 806 799 780 763 765 778 777 774 780 787 773 768 748 728 728 733 731 735 738 737 736 736 734 735 735 735 735 736 736 733 735 737 738 739 740 741 743 745 748 750 751 753 756
794 802 797 781 773 769 773 772 769 775 772 776 755 756 731 729 732 731 729 730 730 731 731 729 730 730 730 729 728 729 729 729 730 731 733 732 735 738 741 743 744 745 747 750
789 789 782 780 769 767 768 765 761 757 758 758 749 746 726 726 727 729 729 729 727 730 728 724 722 721 722 721 721 721 722 721 722 723 724 727 730 732 736 739 740 741 744 747
791 794 792 777 770 774 781 767 752 752 748 748 752 733 732 728 728 727 723 725 725 723 721 718 716 715 715 714 714 715 716 716 716 717 718 721 725 727 730 734 736 738 741 744
786 787 791 779 780 767 746 741 743 743 740 737 739 733 728 728 727 720 718 725 719 718 714 714 712 710 711 712 710 708 710 711 713 715 717 718 720 723 726 730 732 736 740 742
778 781 783 783 767 753 746 736 742 746 736 730 730 729 722 720 724 709 711 715 710 711 710 709 713 714 713 712 711 707 705 707 710 713 715 716 718 720 723 726 729 732 735 739
764 766 775 771 767 754 731 725 724 727 734 725 737 731 723 719 724 708 713 711 712 712 714 713 713 714 713 712 710 707 705 705 708 711 713 715 716 718 721 724 727 729 732 736
769 773 771 767 757 741 734 725 728 744 735 746 742 740 735 731 721 718 719 719 718 716 712 712 713 712 712 711 708 708 708 709 710 710 711 713 715 716 718 723 726 729 731 735
750 755 756 755 755 750 738 731 731 739 741 737 733 733 735 730 725 726 722 721 719 720 717 713 712 712 710 708 706 705 707 709 710 711 711 714 716 717 721 724 727 730 733 736
757 745 744 745 734 740 735 736 734 739 742 736 734 729 729 727 723 719 718 719 718 717 718 717 715 713 712 709 707 705 707 709 710 712 714 716 718 720 723 727 731 734 737 739
744 746 747 746 733 734 734 734 733 732 733 728 724 722 724 724 719 716 712 713 712 712 715 716 718 714 710 710 710 709 709 708 709 713 718 722 723 726 729 730 734 737 739 741
747 750 744 743 734 736 733 731 728 728 727 723 719 718 717 716 709 710 709 710 708 709 709 716 712 718 713 711 712 713 714 715 712 713 717 722 725 729 733 735 740 744 745 746
737 738 740 733 731 736 728 725 724 725 724 720 717 712 709 713 709 708 706 707 707 706 711 714 714 711 710 711 711 714 717 719 717 717 721 725 725 726 732 735 740 745 748 751